Flag for Germany Weather past 2 weeks in Bad Hersfeld, Hesse, Germany

Now
63 °F

Partly sunny.


Feels Like: 63 °F
Forecast: 56 / 69 °F
Wind: 2 mph from North

Location: Fritzlar Airport

Current Time: Aug 29, 2014 at 8:53:58 PM

Latest Report: Aug 29, 2014 at 8:20 PM


Visibility: N/A

Pressure: 30.01 "Hg

Humidity: 94%

Dew point: 61 °F

Location of Bad HersfeldLocation

Historic Weather in Bad Hersfeld — Graph

°F

Bad Hersfeld temperature yesterday

Maximum temperature yesterday: 72 °F (at 2:20 PM)
Minimum temperature yesterday: 41 °F (at 4:20 AM)
Average temperature yesterday: 56 °F

Past Weeks' High & Low Weather Summary

 TemperatureHumidityPressure
High72 °F (Aug 28, 2:20 PM)100% (Aug 16, 4:20 AM)30.09 "Hg (Aug 16, 4:20 AM)
Low41 °F (Aug 28, 4:20 AM)38% (Aug 18, 4:20 PM)29.68 "Hg (Aug 26, 5:20 AM)
Average57 °F78%29.94 "Hg
* Reported Aug 14 7:20 PM — Aug 29 7:20 PM, Bad Hersfeld, Weather by CustomWeather, © 2014

Note: Actual official high and low records may vary slightly from our data, if they occured in-between our weather recording intervals... More about our weather records

Advertising

Bad Hersfeld weather history for previous 24 hours

 ConditionsComfort  
Time TempWeatherWind HumidityBarometerVisibility
7:20 PM
Aug 29
63 °FPartly sunny.3 mph94%30.01 "HgN/A
6:20 PM64 °FScattered showers. Broken clouds.3 mph88%30.01 "HgN/A
5:47 PM61 °FSprinkles. Partly sunny.7 mph94%30.01 "HgN/A
5:20 PM70 °FSprinkles. Broken clouds.9 mph60%29.98 "HgN/A
4:20 PM72 °FPartly sunny.6 mph57%29.98 "HgN/A
3:20 PM72 °FPartly sunny.9 mph57%30.01 "HgN/A
2:20 PM70 °FPartly sunny.6 mph60%30.01 "HgN/A
1:20 PM68 °FBroken clouds.5 mph64%30.01 "HgN/A
12:20 PM68 °FBroken clouds.5 mph64%30.01 "HgN/A
12:02 PM68 °FPartly sunny.6 mph64%30.01 "HgN/A
11:20 AM66 °FPartly sunny.8 mph73%30.01 "HgN/A
10:20 AM66 °FBroken clouds.5 mph78%30.01 "HgN/A
9:20 AM63 °FBroken clouds.3 mph88%29.98 "HgN/A
8:20 AM61 °FPartly sunny.3 mph94%29.98 "HgN/A
7:20 AM61 °FPassing clouds.2 mph94%29.98 "HgN/A
6:20 AM59 °FPartly cloudy.2 mph94%29.95 "HgN/A
5:20 AM59 °FPassing clouds.1 mph94%29.98 "HgN/A
4:20 AM61 °FPartly cloudy.2 mph88%29.95 "HgN/A
3:20 AM61 °FPassing clouds.3 mph94%29.98 "HgN/A
2:20 AM59 °FPassing clouds.1 mph94%29.98 "HgN/A
1:20 AM61 °FPassing clouds.2 mph88%29.98 "HgN/A
12:20 AM63 °FPassing clouds.5 mph88%29.98 "HgN/A
11:20 PM
Aug 28
64 °FPartly cloudy.5 mph83%30.01 "HgN/A
10:20 PM64 °FPassing clouds.3 mph83%30.01 "HgN/A
9:20 PM64 °FPassing clouds.2 mph83%30.01 "HgN/A
8:20 PM68 °FPartly sunny.2 mph69%29.98 "HgN/A
Weather by CustomWeather, © 2014

See weather overviewHow to use our weather pages